Time,TemperatureF,DewpointF,PressureIn,WindDirection,WindDirectionDegrees,WindSpeedMPH,WindSpeedGustMPH,Humidity,HourlyPrecipIn,Conditions,Clouds,dailyrainin,SoftwareType,DateUTC
2013-01-09 00:01:00,44.0,27.5,30.14,SSW,211,5.0,8.0,52,0.00,,FEW250,0.00,VWS V14.01,2013-01-09 08:01:00,
2013-01-09 00:11:00,44.3,27.3,30.14,SSW,204,7.0,8.0,51,0.00,,FEW250,0.00,VWS V14.01,2013-01-09 08:11:00,
2013-01-09 00:21:00,45.0,28.0,30.14,SW,214,4.0,7.0,51,0.00,,FEW250,0.00,VWS V14.01,2013-01-09 08:21:00,
2013-01-09 00:31:00,45.4,27.9,30.14,SSW,211,6.0,9.0,50,0.00,,FEW250,0.00,VWS V14.01,2013-01-09 08:31:00,
2013-01-09 00:41:00,45.3,27.8,30.14,SSW,207,6.0,9.0,50,0.00,,FEW250,0.00,VWS V14.01,2013-01-09 08:41:00,
2013-01-09 00:51:00,45.3,27.8,30.14,SSW,211,6.0,9.0,50,0.00,,FEW250,0.00,VWS V14.01,2013-01-09 08:51:00,
2013-01-09 01:01:00,45.7,28.1,30.14,SSW,208,3.0,9.0,50,0.00,,FEW250,0.00,VWS V14.01,2013-01-09 09:01:00,
2013-01-09 01:11:00,45.1,28.1,30.14,SSW,209,7.0,10.0,51,0.00,,FEW250,0.00,VWS V14.01,2013-01-09 09:11:00,
2013-01-09 01:21:00,45.2,28.2,30.14,SW,218,6.0,10.0,51,0.00,,FEW250,0.00,VWS V14.01,2013-01-09 09:21:00,
2013-01-09 01:31:00,46.1,28.5,30.14,SW,221,5.0,8.0,50,0.00,,FEW250,0.00,VWS V14.01,2013-01-09 09:31:00,
2013-01-09 01:41:00,46.2,28.6,30.13,SSW,210,7.0,8.0,50,0.00,,FEW250,0.00,VWS V14.01,2013-01-09 09:41:00,
2013-01-09 01:51:00,46.9,28.8,30.13,SSW,207,5.0,9.0,49,0.00,,FEW250,0.00,VWS V14.01,2013-01-09 09:51:00,
2013-01-09 02:01:00,45.7,28.1,30.14,SSW,207,4.0,7.0,50,0.00,,SCT250,0.00,VWS V14.01,2013-01-09 10:01:00,
2013-01-09 02:11:00,44.5,28.0,30.14,SSW,207,3.0,5.0,52,0.00,,SCT250,0.00,VWS V14.01,2013-01-09 10:11:00,
2013-01-09 02:21:00,44.9,28.4,30.14,SSW,207,2.0,5.0,52,0.00,,SCT250,0.00,VWS V14.01,2013-01-09 10:21:00,
2013-01-09 02:31:00,44.3,27.8,30.14,SSW,207,3.0,5.0,52,0.00,,SCT250,0.00,VWS V14.01,2013-01-09 10:31:00,
2013-01-09 02:41:00,44.2,28.2,30.13,SSW,207,2.0,3.0,53,0.00,,SCT250,0.00,VWS V14.01,2013-01-09 10:41:00,
2013-01-09 02:51:00,43.1,27.6,30.12,SSW,194,3.0,6.0,54,0.00,,SCT250,0.00,VWS V14.01,2013-01-09 10:51:00,
2013-01-09 03:01:00,42.7,27.2,30.13,SSW,211,3.0,6.0,54,0.00,,SCT250,0.00,VWS V14.01,2013-01-09 11:01:00,
2013-01-09 03:11:00,41.7,27.2,30.13,SSW,209,6.0,6.0,56,0.00,,SCT250,0.00,VWS V14.01,2013-01-09 11:11:00,
2013-01-09 03:21:00,43.3,27.8,30.12,SW,215,7.0,8.0,54,0.00,,SCT250,0.00,VWS V14.01,2013-01-09 11:21:00,
2013-01-09 03:31:00,44.5,28.0,30.12,SSW,203,5.0,7.0,52,0.00,,SCT250,0.00,VWS V14.01,2013-01-09 11:31:00,
2013-01-09 03:41:00,44.1,27.6,30.11,SSW,211,3.0,7.0,52,0.00,,SCT250,0.00,VWS V14.01,2013-01-09 11:41:00,
2013-01-09 03:51:00,43.9,27.9,30.11,SW,215,4.0,8.0,53,0.00,,SCT250,0.00,VWS V14.01,2013-01-09 11:51:00,
2013-01-09 04:01:00,44.1,28.1,30.11,SW,216,3.0,6.0,53,0.00,,SCT250,0.00,VWS V14.01,2013-01-09 12:01:00,
2013-01-09 04:11:00,44.4,27.9,30.11,SW,215,3.0,5.0,52,0.00,,SCT250,0.00,VWS V14.01,2013-01-09 12:11:00,
2013-01-09 04:21:00,43.4,27.4,30.11,SSW,211,4.0,6.0,53,0.00,,SCT250,0.00,VWS V14.01,2013-01-09 12:21:00,
2013-01-09 04:31:00,43.6,28.1,30.10,SSW,211,3.0,6.0,54,0.00,,SCT250,0.00,VWS V14.01,2013-01-09 12:31:00,
2013-01-09 04:41:00,43.1,27.6,30.10,SSW,200,3.0,6.0,54,0.00,,SCT250,0.00,VWS V14.01,2013-01-09 12:41:00,
2013-01-09 04:51:00,43.1,27.6,30.10,SSW,199,4.0,6.0,54,0.00,,SCT250,0.00,VWS V14.01,2013-01-09 12:51:00,
2013-01-09 05:01:00,42.1,27.5,30.10,SSW,200,4.0,6.0,56,0.00,,SCT250,0.00,VWS V14.01,2013-01-09 13:01:00,
2013-01-09 05:11:00,42.2,27.6,30.10,SSW,200,3.0,5.0,56,0.00,,SCT250,0.00,VWS V14.01,2013-01-09 13:11:00,
2013-01-09 05:21:00,42.7,27.7,30.10,SSW,199,6.0,6.0,55,0.00,,SCT250,0.00,VWS V14.01,2013-01-09 13:21:00,
2013-01-09 05:31:00,43.1,27.6,30.10,SSW,200,4.0,6.0,54,0.00,,SCT250,0.00,VWS V14.01,2013-01-09 13:31:00,
2013-01-09 05:41:00,43.6,27.6,30.10,SSW,206,5.0,7.0,53,0.00,,SCT250,0.00,VWS V14.01,2013-01-09 13:41:00,
2013-01-09 05:51:00,42.9,27.4,30.10,SSW,211,5.0,7.0,54,0.00,,SCT250,0.00,VWS V14.01,2013-01-09 13:51:00,
2013-01-09 06:01:00,43.3,27.8,30.10,SSW,203,4.0,8.0,54,0.00,,BKN250,0.00,VWS V14.01,2013-01-09 14:01:00,
2013-01-09 06:11:00,43.5,28.0,30.10,SSW,204,4.0,7.0,54,0.00,,BKN250,0.00,VWS V14.01,2013-01-09 14:11:00,
2013-01-09 06:21:00,43.2,28.1,30.10,SSW,205,3.0,5.0,55,0.00,,BKN250,0.00,VWS V14.01,2013-01-09 14:21:00,
2013-01-09 06:31:00,43.6,28.1,30.10,SSW,206,3.0,5.0,54,0.00,,BKN250,0.00,VWS V14.01,2013-01-09 14:31:00,
2013-01-09 06:41:00,42.7,27.7,30.10,SSW,206,3.0,4.0,55,0.00,,BKN250,0.00,VWS V14.01,2013-01-09 14:41:00,
2013-01-09 06:51:00,41.5,27.4,30.11,SSW,206,2.0,5.0,57,0.00,,BKN250,0.00,VWS V14.01,2013-01-09 14:51:00,
2013-01-09 07:01:00,41.7,27.6,30.11,SSW,206,3.0,5.0,57,0.00,,SCT250,0.00,VWS V14.01,2013-01-09 15:01:00,
2013-01-09 07:11:00,42.5,28.4,30.11,SSW,206,3.0,4.0,57,0.00,,SCT250,0.00,VWS V14.01,2013-01-09 15:11:00,
2013-01-09 07:21:00,42.3,27.7,30.11,SSW,206,3.0,5.0,56,0.00,,SCT250,0.00,VWS V14.01,2013-01-09 15:21:00,
2013-01-09 07:31:00,41.5,27.8,30.11,SSW,206,2.0,5.0,58,0.00,,SCT250,0.00,VWS V14.01,2013-01-09 15:31:00,
2013-01-09 07:41:00,41.9,27.8,30.11,SSW,206,3.0,3.0,57,0.00,,SCT250,0.00,VWS V14.01,2013-01-09 15:41:00,
2013-01-09 07:51:00,42.5,28.4,30.12,SSW,206,3.0,5.0,57,0.00,,SCT250,0.00,VWS V14.01,2013-01-09 15:51:00,
2013-01-09 08:01:00,44.4,28.8,30.12,SSW,206,4.0,5.0,54,0.00,,SCT250,0.00,VWS V14.01,2013-01-09 16:01:00,
2013-01-09 08:11:00,46.1,29.0,30.13,SSW,206,4.0,5.0,51,0.00,,SCT250,0.00,VWS V14.01,2013-01-09 16:11:00,
2013-01-09 08:21:00,47.1,29.4,30.13,SSW,206,3.0,5.0,50,0.00,,SCT250,0.00,VWS V14.01,2013-01-09 16:21:00,
2013-01-09 08:31:00,47.6,29.4,30.13,SSW,206,4.0,6.0,49,0.00,,SCT250,0.00,VWS V14.01,2013-01-09 16:31:00,
2013-01-09 08:41:00,48.1,29.4,30.13,SSW,206,3.0,6.0,48,0.00,,SCT250,0.00,VWS V14.01,2013-01-09 16:41:00,
2013-01-09 08:51:00,49.4,29.5,30.12,SW,221,4.0,7.0,46,0.00,,SCT250,0.00,VWS V14.01,2013-01-09 16:51:00,
2013-01-09 09:01:00,50.3,29.8,30.13,SW,222,4.0,7.0,45,0.00,,BKN250,0.00,VWS V14.01,2013-01-09 17:01:00,
2013-01-09 09:11:00,51.4,30.2,30.13,SW,222,0.0,5.0,44,0.00,,BKN250,0.00,VWS V14.01,2013-01-09 17:11:00,
2013-01-09 09:21:00,54.2,30.4,30.13,SW,222,0.0,2.0,40,0.00,,BKN250,0.00,VWS V14.01,2013-01-09 17:21:00,
2013-01-09 09:31:00,56.4,29.8,30.13,SW,222,0.0,3.0,36,0.00,,BKN250,0.00,VWS V14.01,2013-01-09 17:31:00,
2013-01-09 09:41:00,57.0,29.6,30.12,East,94,2.0,5.0,35,0.00,,BKN250,0.00,VWS V14.01,2013-01-09 17:41:00,
2013-01-09 09:51:00,57.1,29.0,30.12,East,94,2.0,5.0,34,0.00,,BKN250,0.00,VWS V14.01,2013-01-09 17:51:00,
2013-01-09 10:01:00,57.0,28.9,30.11,ENE,69,2.0,6.0,34,0.00,,BKN250,0.00,VWS V14.01,2013-01-09 18:01:00,
2013-01-09 10:11:00,56.4,29.1,30.11,NE,47,6.0,7.0,35,0.00,,BKN250,0.00,VWS V14.01,2013-01-09 18:11:00,
2013-01-09 10:21:00,56.4,29.1,30.10,NNE,33,0.0,7.0,35,0.00,,BKN250,0.00,VWS V14.01,2013-01-09 18:21:00,
2013-01-09 10:31:00,56.4,29.1,30.09,NE,40,1.0,6.0,35,0.00,,BKN250,0.00,VWS V14.01,2013-01-09 18:31:00,
2013-01-09 10:41:00,56.8,29.5,30.08,NE,41,3.0,5.0,35,0.00,,BKN250,0.00,VWS V14.01,2013-01-09 18:41:00,
2013-01-09 10:51:00,57.5,28.6,30.08,NE,46,4.0,7.0,33,0.00,,BKN250,0.00,VWS V14.01,2013-01-09 18:51:00,
2013-01-09 11:01:00,56.3,28.3,30.07,NNE,19,4.0,7.0,34,0.00,,BKN250,0.00,VWS V14.01,2013-01-09 19:01:00,
2013-01-09 11:11:00,56.4,29.1,30.06,NE,52,4.0,8.0,35,0.00,,BKN250,0.00,VWS V14.01,2013-01-09 19:11:00,
2013-01-09 11:21:00,56.6,28.6,30.05,NE,40,3.0,7.0,34,0.00,,BKN250,0.00,VWS V14.01,2013-01-09 19:21:00,
2013-01-09 11:31:00,57.0,28.2,30.04,NE,51,2.0,6.0,33,0.00,,BKN250,0.00,VWS V14.01,2013-01-09 19:31:00,
2013-01-09 11:41:00,57.9,29.0,30.03,NNE,26,4.0,6.0,33,0.00,,BKN250,0.00,VWS V14.01,2013-01-09 19:41:00,
2013-01-09 11:51:00,58.1,29.2,30.03,NE,37,0.0,6.0,33,0.00,,BKN250,0.00,VWS V14.01,2013-01-09 19:51:00,
2013-01-09 12:01:00,58.4,28.7,30.02,NE,39,0.0,6.0,32,0.00,,BKN250,0.00,VWS V14.01,2013-01-09 20:01:00,
2013-01-09 12:11:00,58.0,28.3,30.02,ENE,68,0.0,6.0,32,0.00,,BKN250,0.00,VWS V14.01,2013-01-09 20:11:00,
2013-01-09 12:21:00,58.1,28.4,30.01,NE,47,3.0,7.0,32,0.00,,BKN250,0.00,VWS V14.01,2013-01-09 20:21:00,
2013-01-09 12:31:00,57.9,29.0,30.00,NNE,13,3.0,7.0,33,0.00,,BKN250,0.00,VWS V14.01,2013-01-09 20:31:00,
2013-01-09 12:41:00,57.6,28.0,30.00,NNE,24,0.0,7.0,32,0.00,,BKN250,0.00,VWS V14.01,2013-01-09 20:41:00,
2013-01-09 12:51:00,57.6,28.0,29.99,NE,42,6.0,8.0,32,0.00,,BKN250,0.00,VWS V14.01,2013-01-09 20:51:00,
2013-01-09 13:01:00,57.8,27.4,29.99,NE,49,4.0,7.0,31,0.00,,BKN250,0.00,VWS V14.01,2013-01-09 21:01:00,
2013-01-09 13:11:00,57.8,27.4,29.98,NE,48,4.0,8.0,31,0.00,,BKN250,0.00,VWS V14.01,2013-01-09 21:11:00,
2013-01-09 13:21:00,57.5,27.9,29.98,NE,36,2.0,6.0,32,0.00,,BKN250,0.00,VWS V14.01,2013-01-09 21:21:00,
2013-01-09 13:31:00,57.3,27.7,29.98,NNE,32,0.0,6.0,32,0.00,,BKN250,0.00,VWS V14.01,2013-01-09 21:31:00,
2013-01-09 13:41:00,57.5,27.1,29.98,NE,34,4.0,7.0,31,0.00,,BKN250,0.00,VWS V14.01,2013-01-09 21:41:00,
2013-01-09 13:51:00,57.7,27.3,29.97,ESE,105,4.0,6.0,31,0.00,,BKN250,0.00,VWS V14.01,2013-01-09 21:51:00,
2013-01-09 14:01:00,57.6,27.2,29.97,East,83,3.0,7.0,31,0.00,,BKN250,0.00,VWS V14.01,2013-01-09 22:01:00,
2013-01-09 14:11:00,57.5,27.1,29.97,East,82,4.0,6.0,31,0.00,,BKN250,0.00,VWS V14.01,2013-01-09 22:11:00,
2013-01-09 14:21:00,57.7,27.3,29.96,NE,51,2.0,6.0,31,0.00,,BKN250,0.00,VWS V14.01,2013-01-09 22:21:00,
2013-01-09 14:31:00,57.7,27.3,29.96,SE,140,5.0,8.0,31,0.00,,BKN250,0.00,VWS V14.01,2013-01-09 22:31:00,
2013-01-09 14:41:00,57.6,28.0,29.96,SE,138,4.0,6.0,32,0.00,,BKN250,0.00,VWS V14.01,2013-01-09 22:41:00,
2013-01-09 14:51:00,57.3,27.0,29.95,ESE,111,2.0,7.0,31,0.00,,BKN250,0.00,VWS V14.01,2013-01-09 22:51:00,
2013-01-09 15:01:00,57.0,28.2,29.95,ESE,123,6.0,6.0,33,0.00,,BKN250,0.00,VWS V14.01,2013-01-09 23:01:00,
2013-01-09 15:11:00,57.0,27.5,29.95,ESE,114,2.0,6.0,32,0.00,,BKN250,0.00,VWS V14.01,2013-01-09 23:11:00,
2013-01-09 15:21:00,56.9,27.4,29.95,ESE,114,0.0,5.0,32,0.00,,BKN250,0.00,VWS V14.01,2013-01-09 23:21:00,
2013-01-09 15:31:00,56.8,27.3,29.94,ESE,114,1.0,5.0,32,0.00,,BKN250,0.00,VWS V14.01,2013-01-09 23:31:00,
2013-01-09 15:41:00,56.6,27.9,29.94,ESE,114,1.0,6.0,33,0.00,,BKN250,0.00,VWS V14.01,2013-01-09 23:41:00,
2013-01-09 15:51:00,56.3,27.6,29.94,ESE,113,0.0,5.0,33,0.00,,BKN250,0.00,VWS V14.01,2013-01-09 23:51:00,
2013-01-09 16:01:00,56.0,28.0,29.93,ESE,113,0.0,5.0,34,0.00,,BKN250,0.00,VWS V14.01,2013-01-10 00:01:00,
2013-01-09 16:11:00,55.6,27.7,29.93,ESE,113,0.0,4.0,34,0.00,,BKN250,0.00,VWS V14.01,2013-01-10 00:11:00,
2013-01-09 16:21:00,55.2,27.3,29.92,ESE,113,0.0,2.0,34,0.00,,BKN250,0.00,VWS V14.01,2013-01-10 00:21:00,
2013-01-09 16:31:00,54.8,27.7,29.92,ESE,113,0.0,0.0,35,0.00,,BKN250,0.00,VWS V14.01,2013-01-10 00:31:00,
2013-01-09 16:41:00,54.3,27.2,29.92,ESE,113,0.0,0.0,35,0.00,,BKN250,0.00,VWS V14.01,2013-01-10 00:41:00,
2013-01-09 16:51:00,53.9,27.6,29.91,ESE,113,0.0,0.0,36,0.00,,BKN250,0.00,VWS V14.01,2013-01-10 00:51:00,
2013-01-09 17:01:00,53.6,28.0,29.91,ESE,113,1.0,4.0,37,0.00,,BKN250,0.00,VWS V14.01,2013-01-10 01:01:00,
2013-01-09 17:11:00,53.4,27.8,29.91,ESE,113,0.0,2.0,37,0.00,,BKN250,0.00,VWS V14.01,2013-01-10 01:11:00,
2013-01-09 17:21:00,52.8,27.9,29.90,ESE,113,0.0,0.0,38,0.00,,BKN250,0.00,VWS V14.01,2013-01-10 01:21:00,
2013-01-09 17:31:00,52.3,27.5,29.89,ESE,113,0.0,0.0,38,0.00,,BKN250,0.00,VWS V14.01,2013-01-10 01:31:00,
2013-01-09 17:41:00,51.1,28.2,29.89,ESE,113,0.0,2.0,41,0.00,,BKN250,0.00,VWS V14.01,2013-01-10 01:41:00,
2013-01-09 17:51:00,50.8,28.5,29.89,ESE,113,2.0,2.0,42,0.00,,BKN250,0.00,VWS V14.01,2013-01-10 01:51:00,
2013-01-09 18:01:00,49.9,28.3,29.89,ESE,113,0.0,2.0,43,0.00,,BKN250,0.00,VWS V14.01,2013-01-10 02:01:00,
2013-01-09 18:11:00,49.7,28.1,29.88,ESE,113,0.0,0.0,43,0.00,,BKN250,0.00,VWS V14.01,2013-01-10 02:11:00,
2013-01-09 18:21:00,49.3,27.8,29.88,ESE,113,0.0,4.0,43,0.00,,BKN250,0.00,VWS V14.01,2013-01-10 02:21:00,
2013-01-09 18:31:00,48.6,27.7,29.87,ESE,113,2.0,4.0,44,0.00,,BKN250,0.00,VWS V14.01,2013-01-10 02:31:00,
2013-01-09 18:41:00,47.8,27.0,29.87,ESE,113,2.0,4.0,44,0.00,,BKN250,0.00,VWS V14.01,2013-01-10 02:41:00,
2013-01-09 18:51:00,47.1,27.4,29.87,ESE,113,1.0,4.0,46,0.00,,BKN250,0.00,VWS V14.01,2013-01-10 02:51:00,
2013-01-09 19:01:00,47.5,27.8,29.87,ESE,113,1.0,4.0,46,0.00,,BKN250,0.00,VWS V14.01,2013-01-10 03:01:00,
2013-01-09 19:11:00,47.2,28.5,29.87,ESE,113,2.0,4.0,48,0.00,,BKN250,0.00,VWS V14.01,2013-01-10 03:11:00,
2013-01-09 19:21:00,46.7,28.1,29.87,ESE,113,2.0,4.0,48,0.00,,BKN250,0.00,VWS V14.01,2013-01-10 03:21:00,
2013-01-09 19:31:00,47.1,27.4,29.86,ESE,113,0.0,4.0,46,0.00,,BKN250,0.00,VWS V14.01,2013-01-10 03:31:00,
2013-01-09 19:41:00,47.2,28.0,29.86,ESE,113,2.0,4.0,47,0.00,,BKN250,0.00,VWS V14.01,2013-01-10 03:41:00,
2013-01-09 19:51:00,47.0,27.8,29.85,ESE,113,2.0,4.0,47,0.00,,BKN250,0.00,VWS V14.01,2013-01-10 03:51:00,
2013-01-09 20:01:00,46.4,27.8,29.85,ESE,113,1.0,4.0,48,0.00,,BKN250,0.00,VWS V14.01,2013-01-10 04:01:00,
2013-01-09 20:11:00,46.7,27.0,29.85,ESE,113,1.0,2.0,46,0.00,,BKN250,0.00,VWS V14.01,2013-01-10 04:11:00,
2013-01-09 20:21:00,47.1,27.4,29.84,ESE,113,0.0,2.0,46,0.00,,BKN250,0.00,VWS V14.01,2013-01-10 04:21:00,
2013-01-09 20:31:00,47.2,27.0,29.83,ESE,113,0.0,0.0,45,0.00,,BKN250,0.00,VWS V14.01,2013-01-10 04:31:00,
2013-01-09 20:41:00,46.1,28.0,29.83,ESE,114,2.0,5.0,49,0.00,,BKN250,0.00,VWS V14.01,2013-01-10 04:41:00,
2013-01-09 20:51:00,45.9,27.8,29.83,SSE,163,1.0,5.0,49,0.00,,BKN250,0.00,VWS V14.01,2013-01-10 04:51:00,
2013-01-09 21:01:00,46.3,27.7,29.83,SSE,163,2.0,4.0,48,0.00,,BKN250,0.00,VWS V14.01,2013-01-10 05:01:00,
2013-01-09 21:11:00,46.5,27.4,29.82,SSE,163,4.0,4.0,47,0.00,,BKN250,0.00,VWS V14.01,2013-01-10 05:11:00,
2013-01-09 21:21:00,46.3,27.7,29.82,SSE,163,2.0,5.0,48,0.00,,BKN250,0.00,VWS V14.01,2013-01-10 05:21:00,
2013-01-09 21:31:00,46.7,27.6,29.82,SSE,163,2.0,4.0,47,0.00,,BKN250,0.00,VWS V14.01,2013-01-10 05:31:00,
2013-01-09 21:41:00,46.0,27.4,29.82,SSE,163,1.0,5.0,48,0.00,,BKN250,0.00,VWS V14.01,2013-01-10 05:41:00,
2013-01-09 21:51:00,45.8,27.2,29.81,SSE,163,2.0,5.0,48,0.00,,BKN250,0.00,VWS V14.01,2013-01-10 05:51:00,
2013-01-09 22:01:00,45.8,27.7,29.81,WNW,296,0.0,5.0,49,0.00,,BKN250,0.00,VWS V14.01,2013-01-10 06:01:00,
2013-01-09 22:11:00,45.7,27.6,29.81,WNW,297,0.0,0.0,49,0.00,,BKN250,0.00,VWS V14.01,2013-01-10 06:11:00,
2013-01-09 22:21:00,45.9,27.3,29.80,WNW,296,0.0,0.0,48,0.00,,BKN250,0.00,VWS V14.01,2013-01-10 06:21:00,
2013-01-09 22:31:00,45.2,27.2,29.79,WNW,297,0.0,0.0,49,0.00,,BKN250,0.00,VWS V14.01,2013-01-10 06:31:00,
2013-01-09 22:41:00,44.7,27.2,29.79,WNW,291,2.0,3.0,50,0.00,,BKN250,0.00,VWS V14.01,2013-01-10 06:41:00,
2013-01-09 22:51:00,44.6,27.6,29.79,WNW,292,2.0,3.0,51,0.00,,BKN250,0.00,VWS V14.01,2013-01-10 06:51:00,
2013-01-09 23:01:00,44.9,27.4,29.78,WNW,291,3.0,3.0,50,0.00,,BKN220,0.00,VWS V14.01,2013-01-10 07:01:00,
2013-01-09 23:11:00,44.9,27.4,29.78,WNW,291,3.0,4.0,50,0.00,,BKN220,0.00,VWS V14.01,2013-01-10 07:11:00,
2013-01-09 23:21:00,44.5,27.5,29.77,West,271,2.0,4.0,51,0.00,,BKN220,0.00,VWS V14.01,2013-01-10 07:21:00,
2013-01-09 23:31:00,44.3,27.3,29.76,West,271,2.0,4.0,51,0.00,,BKN220,0.00,VWS V14.01,2013-01-10 07:31:00,
2013-01-09 23:41:00,44.1,27.1,29.76,West,271,2.0,3.0,51,0.00,,BKN220,0.00,VWS V14.01,2013-01-10 07:41:00,
2013-01-09 23:51:00,44.4,27.4,29.75,West,271,1.0,3.0,51,0.00,,BKN220,0.00,VWS V14.01,2013-01-10 07:51:00,